Regional Weather Roundup
Issued by NWS New Orleans/Baton Rouge, LA

Home | Current Version | Previous Version | Graphics & Text | Print | Product List | Glossary On
Versions: 1 2 3 4 5 6 7 8 9 10 11 12 13 14 15 16 17 18 19 20 21 22 23 24 25 26 27 28 29 30 31 32 33 34 35 36 37 38 39 40 41 42 43 44 45 46 47 48 49 50
370
ASUS44 KLIX 221701
RWRLIX
NEW ORLEANS REGIONAL WEATHER ROUNDUP
NATIONAL WEATHER SERVICE NEW ORLEANS LA
1100 AM CST MON DEC 22 2014

NOTE: "FAIR" INDICATES FEW OR NO CLOUDS BELOW 12,000 FEET WITH NO
      SIGNIFICANT WEATHER AND/OR OBSTRUCTIONS TO VISIBILITY.
      SKY/WX - SKY CONDITION AND SIGNIFICANT WEATHER.
      TMP - AIR TEMPERATURE.     DP    - DEWPOINT TEMPERATURE.
      RH  - RELATIVE HUMIDITY.   PRES  - PRESSURE.
      HI  - HEAT INDEX.          WCI   - WIND CHILL INDEX.

*  THESE STATIONS ARE NOT NWS OR FAA STATIONS AND ARE NOT UNDER
   NWS QUALITY CONTROL.

LAZ038-040-048-061>063-065>067-069-221800-
SOUTHEAST LOUISIANA

CITY           SKY/WX    TMP DP  RH WIND       PRES   REMARKS
N.O. AUDUBON     N/A     70  67  89 MISG        N/A
N.O. INTL ARPT CLOUDY    70  65  84 S15       29.80F
N.O. LAKEFRONT MOSUNNY   70  64  81 S12       29.81F
N.O. DOWNTOWN* CLOUDY    70  63  78 S9        29.81F
SLIDELL        CLOUDY    68  64  87 SE8       29.80F
BATON ROUGE    HAZE      65  60  84 SE5       29.78F VSB 1
BOOTHVILLE     MOSUNNY   72  68  87 S10       29.83F
BELLE CHASSE   PTSUNNY   72  67  84 S10       29.80F
BOGALUSA*        N/A     66  60  80 CALM      29.82F
GALLIANO*      NOT AVBL
NEW ROADS*     NOT AVBL
GONZALES*      NOT AVBL
HAMMOND*       NOT AVBL
HOUMA*         MOSUNNY   72  68  88 S9        29.80F HAZE
PORT FOURCHON* PTSUNNY   72  68  88 S12G17    29.85F

$$

MSZ070-080>082-221800-
SOUTHERN MISSISSIPPI

CITY           SKY/WX    TMP DP  RH WIND       PRES   REMARKS
MCCOMB         CLOUDY    61  60  97 SE7       29.79F FOG
GULFPORT       HVY RAIN  62  61  96 VRB6      29.84F FOG
BILOXI         NOT AVBL
PASCAGOULA     PTSUNNY   66  62  87 SE10      29.83F
STENNIS ARPT*  CLOUDY    63  61  94 E7        29.82F FOG

$$

COASTAL OBSERVATIONS
LAKE AND NEARSHORE STATIONS

STATION/POSITION TIME  TEMP    WIND        PRES    WAVE
                       AIR SEA DIR/SP/G            HT/PER
                 (UTC) (F)     (DEG/KT/KT) (MB)    (FT/S)
PASCAGOULA       1600   65     110/  5/  9 1010.3
WAVELAND YACHT   1600   60     130/  4/  5 1009.6
GRAND ISLE       1600   70 60  210/  9/ 12 1010.6
SOUTHWEST PASS   1600   64                 1010.9
NEW CANAL        1600   67 56  170/  5/  9 1009.9
SHELL BEACH      1600   66 57  160/  7/ 10 1009.6

OFFSHORE STATIONS

STATION/POSITION TIME  TEMP    WIND        PRES    WAVE
                       AIR SEA DIR/SP/G            HT/PER
                 (UTC) (F)     (DEG/KT/KT) (MB)    (FT/S)
64 S DAUPHIN ISL 1700   73 74  190/ 10/ 10 1010.4    2/ 5

$$




USA.gov is the U.S. government's official web portal to all federal, state and local government web resources and services.